SCP
0 0 0 0 0 0 0 0 0 0 0 0 0 0 0 0 0 0 0 0 0 0 0 0 0 0 0 0 0 0 0 0 0 0 0 0 0 0 0 0 0 0 0 0
0 0 0 0 0 0 0 0 0 0 0 0 0 0 0 0 0 0 0 0 0 0 0 0 0 0 0 0 0 0 0 0 0 0 0 0 0 0 0 0 0 0 0 0
0 0 0 0 0 0 0 0 0 0 0 0 0 0 0 0 0 0 0 0 0 0 0 0 0 0 0 0 0 0 0 0 0 0 0 0 0 0 0 0 0 0 0 0
0 0 0 0 0 0 0 0 0 0 0 0 0 0 0 0 0 0 0 0 0 0 0 0 0 0 0 0 0 0 0 0 0 0 0 0 0 0 0 0 0 0 0 0
0 0 0 0 0 0 0 0 0 0 0 0 0 0 0 0 0 0 0 0 0 0 0 0 0 0 0 0 0 0 0 0 0 0 0 0 0 0 0 0 0 0 0 0
0 0 0 0 0 0 0 0 0 0 0 0 0 0 0 0 0 0 0 0 0 0 0 0 0 0 0 0 0 0 0 0 0 0 0 0 0 0 0 0 0 0 0 0
0 0 0 0 0 0 0 0 0 0 0 0 0 0 0 0 0 0 0 0 0 0 0 0 0 0 0 0 0 0 0 0 0 0 0 0 0 0 0 0 0 0 0 0
0 0 0 0 0 0 0 0 0 0 0 0 0 0 0 0 0 0 0 0 0 0 0 0 0 0 0 0 0 0 0 0 0 0 0 0 0 0 0 0 0 0 0 0
0 0 0 0 0 0 0 0 0 0 0 0 0 0 0 0 0 0 0 0 0 0 0 0 0 0 0 0 0 0 0 0 0 0 0 0 0 0 0 0 0 0 0 0
0 0 0 0 0 0 0 0 0 0 0 0 0 0 0 0 0 0 0 0 0 0 0 0 0 0 0 0 0 0 0 0 0 0 0 0 0 0 0 0 0 0 0 0
0 0 0 0 0 0 0 0 0 0 0 0 0 0 0 0 0 0 0 0 0 0 0 0 0 0 0 0 0 0 0 0 0 0 0 0 0 0 0 0 0 0 0 0
0 0 0 0 0 0 0 0 0 0 0 0 0 0 0 0 0 0 0 0 0 0 0 0 0 0 0 0 0 0 0 0 0 0 0 0 0 0 0 0 0 0 0 0
0 0 0 0 0 0 0 0 0 0 0 0 0 0 0 0 0 0 0 0 0 0 0 0 0 0 0 0 0 0 0 0 0 0 0 0 0 0 0 0 0 0 0 0
0 0 0 0 0 0 0 0 0 0 0 0 0 0 0 0 0 0 0 0 0 0 0 0 0 0 0 0 0 0 0 0 0 0 0 0 0 0 0 0 0 0 0 0
0 0 0 0 0 0 0 0 0 0 0 0 0 0 0 0 0 0 0 0 0 0 0 0 0 0 0 0 0 0 0 0 0 0 0 0 0 0 0 0 0 0 0 0
0 0 0 0 0 0 0 0 0 0 0 0 0 0 0 0 0 0 0 0 0 0 0 0 0 0 0 0 0 0 0 0 0 0 0 0 0 0 0 0 0 0 0 0
0 0 0 0 0 0 0 0 0 0 0 0 0 0 0 0 0 0 0 0 0 0 0 0 0 0 0 0 0 0 0 0 0 0 0 0 0 0 0 0 0 0 0 0
0 0 0 0 0 0 0 0 0 0 0 0 0 0 0 0 0 0 0 0 0 0 0 0 0 0 0 0 0 0 0 0 0 0 0 0 0 0 0 0 0 0 0 0
0 0 0 0 0 0 0 0 0 0 0 0 0 0 0 0 0 0 0 0 0 0 0 0 0 0 0 0 0 0 0 0 0 0 0 0 0 0 0 0 0 0 0 0
0 0 0 0 0 0 0 0 0 0 0 0 0 0 0 0 0 0 0 0 0 0 0 0 0 0 0 0 0 0 0 0 0 0 0 0 0 0 0 0 0 0 0 0
0 0 0 0 0 0 0 0 0 0 0 0 0 0 0 0 0 0 0 0 0 0 0 0 0 0 0 0 0 0 0 0 0 0 0 0 0 0 0 0 0 0 0 0
0 0 0 0 0 0 0 0 0 0 0 0 0 0 0 0 0 0 0 0 0 0 0 0 0 0 0 0 0 0 0 0 0 0 0 0 0 0 0 0 0 0 0 0
0 0 0 0 0 0 0 0 0 0 0 0 0 0 0 0 0 0 0 0 0 0 0 0 0 0 0 0 0 0 0 0 0 0 0 0 0 0 0 0 0 0 0 0
0 0 0 0 0 0 0 0 0 0 0 0 0 0 0 0 0 0 0 0 0 0 0 0 0 0 0 0 0 0 0 0 0 0 0 0 0 0 0 0 0 0 0 0
0 0 0 0 0 0 0 0 0 0 0 0 0 0 0 0 0 0 0 0 0 0 0 0 0 0 0 0 0 0 0 0 0 0 0 0 0 0 0 0 0 0 0 0
0 0 0 0 0 0 0 0 0 0 0 0 0 0 0 0 0 0 0 0 0 0 0 0 0 0 0 0 0 0 0 0 0 0 0 0 0 0 0 0 0 0 0 0
0 0 0 0 0 0 0 0 0 0 0 0 0 0 0 0 0 0 0 0 0 0 0 0 0 0 0 0 0 0 0 0 0 0 0 0 0 0 0 0 0 0 0 0
Wind_Speed
18 17 13 13 14 17 21 19 13 12 15 17 11 12 13 6 5 9 11 12 12 12 11 12 12 11 12 12 11 12 12 11 9 8 8 7 7 6 6 5 5 3 3 3
14 16 18 19 18 20 22 21 20 15 17 10 7 7 8 5 9 11 12 12 12 12 13 13 13 13 12 11 10 11 12 10 9 8 8 7 7 6 6 5 4 3 4 4
8 8 8 12 17 22 19 16 16 21 18 7 9 7 3 4 8 10 11 12 13 13 13 12 13 14 13 11 11 11 11 10 8 8 8 7 6 6 5 4 3 3 4 4
7 7 5 6 4 11 15 15 16 13 8 6 7 3 3 3 4 8 10 12 12 12 12 11 11 12 12 12 11 11 10 9 8 8 7 6 6 5 4 2 3 2 3 4
5 6 6 6 2 5 7 8 14 15 12 6 1 3 1 2 0 6 9 10 11 11 12 13 13 14 14 12 11 11 10 8 7 7 7 6 5 4 2 2 2 2 3 4
4 6 5 5 2 3 3 5 9 15 14 7 4 2 2 5 5 8 10 12 13 13 14 13 12 13 15 12 11 10 9 8 7 7 7 6 5 3 2 2 2 3 4 4
4 5 7 6 0 5 2 5 3 9 9 8 5 1 4 6 8 9 11 13 14 14 12 11 12 14 14 12 10 9 9 9 8 7 7 6 4 2 2 2 3 4 5 5
4 3 6 3 3 5 6 4 3 3 6 9 8 8 7 9 10 11 12 13 13 14 12 9 10 14 14 10 8 10 10 9 7 6 5 5 4 3 3 3 4 4 4 6
7 7 5 2 3 4 3 2 1 3 6 12 11 8 9 9 10 10 11 11 11 15 14 9 8 12 14 8 9 10 10 8 7 6 5 4 3 3 2 2 3 4 4 5
4 7 5 4 2 2 3 2 3 6 9 9 12 12 12 11 10 10 11 11 12 14 14 10 9 11 12 10 9 10 9 7 5 5 4 3 3 2 2 2 3 4 4 5
5 7 5 4 1 2 4 7 10 10 9 12 17 14 12 11 10 10 11 9 10 12 13 11 10 10 8 8 9 9 7 6 5 4 3 2 2 2 2 2 4 5 3 4
6 6 4 3 3 5 6 6 9 13 12 9 11 14 13 11 10 10 10 10 11 12 12 10 10 9 7 7 8 8 6 4 3 3 2 2 2 3 6 6 11 12 12 11
3 1 2 3 5 5 6 7 8 9 12 12 10 12 13 11 9 10 10 11 11 11 11 10 9 8 6 6 6 7 6 4 3 3 2 2 2 3 4 6 9 11 13 15
4 5 3 3 4 6 9 10 11 11 11 11 11 11 12 12 11 10 10 9 10 11 10 9 9 7 5 5 7 6 5 5 4 2 1 2 2 3 3 5 7 6 10 15
4 3 5 7 9 10 10 12 14 12 12 11 10 11 12 12 11 9 8 10 11 10 8 8 8 5 4 5 6 6 4 3 2 1 1 2 3 3 3 5 5 6 6 8
5 6 9 11 12 11 11 13 14 12 11 11 11 11 11 12 11 9 8 9 10 9 7 7 7 5 5 6 6 5 3 4 3 1 2 2 3 3 3 4 5 6 6 7
10 9 9 10 11 11 9 9 12 13 12 12 12 12 13 13 12 9 7 6 8 7 6 7 6 5 6 6 5 3 2 3 4 2 2 3 3 3 4 5 5 6 6 9
5 7 10 15 16 14 11 10 12 13 12 12 13 12 12 12 11 9 8 9 9 8 6 6 6 6 5 5 4 2 1 1 2 2 2 3 3 3 4 5 6 7 7 9
5 8 10 10 11 12 13 13 12 12 13 13 13 11 10 10 10 9 8 9 9 7 4 5 9 6 5 4 4 2 1 1 2 2 3 6 5 4 5 5 6 6 8 8
7 9 12 12 11 13 14 14 14 13 11 12 13 13 11 9 9 9 8 7 4 4 5 6 6 5 4 3 3 1 1 2 2 3 3 3 4 4 5 6 6 7 7 8
10 12 13 14 12 11 12 14 15 14 11 10 12 12 11 9 8 8 8 6 3 4 6 8 4 3 2 2 3 1 1 2 2 3 3 4 4 5 5 5 6 8 8 8
10 12 13 14 15 13 10 10 13 14 13 12 12 12 12 10 9 8 6 4 4 8 5 3 2 2 4 4 2 1 2 2 3 3 4 4 4 5 5 6 7 8 8 8
10 11 13 13 15 14 12 11 12 12 12 12 12 11 10 8 6 6 5 3 4 7 5 2 3 6 6 3 1 2 2 3 4 4 4 4 5 5 5 7 7 7 7 8
12 12 13 13 14 16 14 11 11 11 12 11 9 10 10 8 5 4 5 9 9 8 4 4 6 6 5 2 2 2 3 4 4 5 4 4 5 5 5 6 7 7 7 8
12 13 14 14 13 12 13 13 13 12 12 10 10 8 6 5 6 5 5 6 9 8 4 4 6 5 3 2 3 3 4 4 5 4 3 4 5 5 6 6 6 7 7 8
11 10 8 9 10 10 10 10 9 8 9 9 7 6 6 6 8 6 5 6 6 6 3 2 3 4 3 3 4 4 4 5 6 5 5 6 6 6 6 7 8 7 7 8
10 10 10 10 9 8 8 9 10 9 8 9 8 6 6 6 6 6 5 4 3 3 2 2 3 3 3 4 4 4 4 4 4 5 5 5 5 5 6 8 7 7 8 9
Wind_Direction
251 252 246 237 227 216 218 226 235 249 258 270 283 292 296 283 174 150 148 146 145 141 136 130 126 127 127 127 126 125 121 119 118 118 117 114 109 104 97 89 82 70 52 21
265 256 250 247 237 227 226 228 236 256 266 263 266 273 280 246 182 168 163 157 149 145 142 140 138 136 132 130 127 124 122 122 123 121 116 111 108 103 94 83 70 52 33 9
276 280 259 249 233 222 222 221 222 236 246 263 282 286 282 247 195 177 167 160 156 154 150 146 144 142 138 132 124 119 120 123 124 119 113 111 109 98 89 80 60 38 13 351
286 291 264 272 281 198 207 219 215 230 244 240 263 272 218 253 203 167 160 156 150 145 138 136 132 130 124 123 122 120 120 120 120 116 111 108 100 93 85 69 46 20 343 330
288 298 296 303 296 163 174 223 210 221 234 237 237 287 222 16 342 152 148 143 138 135 135 135 134 132 125 119 118 118 120 120 118 116 114 108 100 92 78 57 27 342 325 333
296 309 319 321 323 132 125 276 211 204 217 195 159 277 314 23 44 91 109 119 123 124 126 127 130 129 122 122 120 122 121 115 111 111 112 110 107 95 73 56 355 338 333 327
246 276 281 291 5 115 164 270 294 195 191 163 171 161 76 62 65 84 100 110 117 120 121 126 128 123 118 119 118 117 111 106 102 105 110 113 105 96 75 36 5 349 328 317
198 242 276 329 122 187 239 301 348 138 136 123 110 98 90 84 85 92 99 104 111 111 108 108 118 118 114 111 111 109 107 104 103 104 107 108 102 84 58 29 1 337 321 315
201 223 256 276 245 273 290 291 4 114 122 125 121 114 108 98 97 97 103 105 107 111 106 95 99 114 114 112 114 110 106 107 108 101 89 88 81 61 36 10 345 319 311 306
265 270 270 271 279 345 7 27 84 111 121 123 121 123 117 113 108 104 102 104 110 108 104 93 85 96 110 117 115 113 113 113 111 104 89 67 50 31 15 340 319 306 302 308
263 273 290 287 223 86 73 83 90 86 93 119 124 123 121 115 110 107 103 97 98 103 104 102 100 100 107 115 117 113 112 112 105 95 87 55 24 353 329 282 281 308 300 302
227 238 210 262 128 125 120 112 115 112 102 101 118 121 117 109 107 107 102 101 100 102 107 107 106 103 105 114 119 120 117 111 102 92 71 46 8 335 324 320 324 328 329 327
218 119 126 101 107 112 114 115 113 113 120 115 109 116 115 109 104 104 103 107 110 113 114 113 109 105 108 113 112 111 113 109 94 74 51 17 349 330 321 323 324 330 334 333
163 132 132 156 139 119 115 109 100 96 99 107 110 108 107 106 106 106 107 110 114 115 114 113 109 105 108 107 101 97 92 86 83 64 23 341 319 307 304 314 322 322 329 331
178 177 150 128 114 115 118 118 112 108 106 99 100 106 110 112 111 108 111 115 113 111 112 113 109 105 100 98 94 90 83 72 68 38 349 318 305 301 301 306 309 311 313 321
111 99 119 130 134 135 134 133 127 123 116 111 106 104 105 108 109 111 115 124 123 124 124 116 108 106 98 91 89 81 63 48 53 16 330 312 307 307 310 311 312 313 316 320
138 145 149 150 152 150 147 141 135 130 122 119 118 118 115 112 108 105 100 97 102 107 109 109 106 98 90 92 93 86 62 17 4 355 321 311 307 308 312 312 312 313 312 316
183 172 169 163 158 149 133 123 122 122 121 125 125 122 120 120 119 115 107 100 92 81 77 90 97 92 92 99 98 88 57 352 326 313 312 311 311 316 313 310 311 311 311 315
138 137 134 135 136 133 127 123 118 116 122 126 121 115 110 109 113 113 110 105 105 100 91 102 108 97 91 99 104 70 38 346 332 330 325 324 326 315 312 308 306 307 311 317
113 117 118 114 114 123 123 121 119 119 121 121 116 111 107 107 112 110 99 85 78 108 117 110 101 98 91 82 94 64 25 352 337 327 316 309 310 309 310 310 311 310 311 313
118 119 119 116 109 108 118 124 124 122 120 117 117 117 115 110 107 106 104 94 76 103 109 111 104 110 114 101 79 57 18 350 333 318 309 306 307 303 300 301 308 313 313 313
119 121 119 118 115 110 107 113 118 117 113 107 108 113 114 110 101 88 80 105 122 115 100 98 111 132 120 96 67 27 354 334 317 305 298 296 297 299 302 309 311 309 307 306
118 119 119 120 119 113 104 103 108 111 113 117 120 121 117 113 111 115 110 108 108 112 105 105 113 107 92 73 34 355 332 316 304 295 291 291 295 301 304 303 301 302 304 304
120 118 117 119 118 113 107 100 97 99 101 100 104 113 117 109 84 70 109 124 117 105 84 82 80 78 64 42 353 327 309 298 290 286 287 296 301 297 293 295 299 300 300 300
119 121 125 126 119 113 115 112 104 101 98 95 90 83 80 94 111 108 96 101 108 97 67 50 49 45 35 347 324 306 295 287 288 294 299 297 292 292 293 293 294 297 298 297
123 122 115 110 117 124 125 121 115 114 113 108 96 86 89 92 96 94 88 86 92 95 82 45 15 7 345 322 306 295 288 295 307 309 295 293 291 292 293 294 295 294 293 291
108 111 109 105 103 109 114 116 119 120 122 121 114 106 103 99 95 93 91 86 81 72 50 17 356 337 318 305 296 290 288 290 295 296 294 288 285 286 289 290 291 292 292 290